TimeEDT,TemperatureF,Dew PointF,Humidity,Sea Level PressureIn,VisibilityMPH,Wind Direction,Wind SpeedMPH,Gust SpeedMPH,PrecipitationIn,Events,Conditions,WindDirDegrees,DateUTC
12:15 AM,57.2,53.6,88,30.33,5.0,NNE,4.6,-,N/A,,Drizzle,20,2013-05-02 04:15:00
12:35 AM,57.2,53.6,88,30.33,7.0,NNE,4.6,-,N/A,,Heavy Drizzle,20,2013-05-02 04:35:00
12:55 AM,55.4,53.6,94,30.33,10.0,Calm,Calm,-,N/A,,Overcast,0,2013-05-02 04:55:00
1:15 AM,55.4,53.6,94,30.32,5.0,NNE,3.5,-,0.01,,Heavy Drizzle,30,2013-05-02 05:15:00
1:35 AM,55.4,53.6,94,30.32,7.0,NNE,3.5,-,0.02,Rain,Rain,20,2013-05-02 05:35:00
1:55 AM,55.4,55.4,100,30.31,7.0,NNE,3.5,-,0.03,Rain,Rain,30,2013-05-02 05:55:00
2:15 AM,55.4,55.4,100,30.31,5.0,NE,4.6,-,0.02,Rain,Heavy Rain,40,2013-05-02 06:15:00
2:35 AM,55.4,55.4,100,30.30,7.0,NNE,4.6,-,0.02,,Drizzle,30,2013-05-02 06:35:00
2:55 AM,55.4,55.4,100,30.30,10.0,NNE,3.5,-,0.02,,Overcast,30,2013-05-02 06:55:00
3:15 AM,55.4,55.4,100,30.29,10.0,NE,4.6,-,N/A,,Overcast,40,2013-05-02 07:15:00
3:35 AM,55.4,55.4,100,30.29,7.0,NE,4.6,-,N/A,,Overcast,40,2013-05-02 07:35:00
3:55 AM,57.2,55.4,94,30.29,7.0,NE,4.6,-,N/A,,Overcast,40,2013-05-02 07:55:00
4:15 AM,55.4,55.4,100,30.29,7.0,NE,4.6,-,N/A,,Overcast,50,2013-05-02 08:15:00
4:35 AM,55.4,55.4,100,30.30,7.0,NE,3.5,-,N/A,,Overcast,40,2013-05-02 08:35:00
4:55 AM,55.4,53.6,94,30.30,7.0,Calm,Calm,-,N/A,,Overcast,0,2013-05-02 08:55:00
5:15 AM,55.4,53.6,94,30.30,10.0,NE,4.6,-,N/A,,Overcast,50,2013-05-02 09:15:00
5:35 AM,55.4,53.6,94,30.30,7.0,NE,3.5,-,N/A,,Overcast,40,2013-05-02 09:35:00
5:55 AM,55.4,53.6,94,30.30,5.0,ENE,3.5,-,N/A,,Overcast,70,2013-05-02 09:55:00
6:15 AM,55.4,53.6,94,30.29,5.0,NE,3.5,-,N/A,,Overcast,50,2013-05-02 10:15:00
6:35 AM,55.4,53.6,94,30.31,5.0,Calm,Calm,-,N/A,,Overcast,0,2013-05-02 10:35:00
6:55 AM,55.4,53.6,94,30.31,5.0,NE,3.5,-,N/A,,Overcast,40,2013-05-02 10:55:00
7:15 AM,55.4,53.6,94,30.31,5.0,NE,5.8,-,N/A,,Overcast,50,2013-05-02 11:15:00
7:35 AM,55.4,53.6,94,30.31,4.0,NE,4.6,-,N/A,,Overcast,50,2013-05-02 11:35:00
7:55 AM,57.2,55.4,94,30.32,2.0,NE,9.2,-,N/A,,Overcast,50,2013-05-02 11:55:00
8:55 AM,57.2,55.4,94,30.33,3.0,NE,11.5,-,N/A,,Overcast,50,2013-05-02 12:55:00
9:55 AM,55.4,53.6,94,30.34,3.0,NE,11.5,-,N/A,,Overcast,50,2013-05-02 13:55:00
10:55 AM,57.2,53.6,88,30.35,5.0,NE,11.5,-,N/A,,Overcast,50,2013-05-02 14:55:00
11:55 AM,59.0,55.4,88,30.35,7.0,ENE,5.8,-,N/A,,Overcast,70,2013-05-02 15:55:00
12:55 PM,60.8,55.4,82,30.35,7.0,ENE,10.4,-,N/A,,Overcast,70,2013-05-02 16:55:00
1:55 PM,60.8,55.4,82,30.34,10.0,NE,6.9,-,N/A,,Overcast,50,2013-05-02 17:55:00
2:55 PM,60.8,55.4,82,30.34,10.0,NE,9.2,-,N/A,,Overcast,40,2013-05-02 18:55:00
3:55 PM,62.6,55.4,77,30.32,10.0,NE,4.6,-,N/A,,Overcast,40,2013-05-02 19:55:00
4:55 PM,62.6,55.4,77,30.30,10.0,NE,5.8,-,N/A,,Overcast,40,2013-05-02 20:55:00
6:55 PM,62.6,55.4,77,30.29,10.0,ENE,4.6,-,N/A,,Overcast,60,2013-05-02 22:55:00
8:57 PM,60.8,55.4,82,30.30,10.0,NE,4.6,-,N/A,,Overcast,50,2013-05-03 00:57:00
9:15 PM,59.0,53.6,82,30.30,10.0,NE,3.5,-,N/A,,Overcast,40,2013-05-03 01:15:00
9:35 PM,59.0,53.6,82,30.30,10.0,NE,5.8,-,N/A,,Overcast,40,2013-05-03 01:35:00
9:55 PM,59.0,53.6,82,30.30,10.0,NNE,6.9,-,N/A,,Overcast,30,2013-05-03 01:55:00
9:57 PM,60.8,55.4,82,30.31,10.0,NE,6.9,-,N/A,,Overcast,40,2013-05-03 01:57:00
10:15 PM,59.0,53.6,82,30.31,10.0,NE,8.1,-,N/A,,Overcast,40,2013-05-03 02:15:00
10:35 PM,59.0,55.4,88,30.31,10.0,NNE,8.1,-,N/A,,Overcast,30,2013-05-03 02:35:00
10:55 PM,59.0,53.6,82,30.30,10.0,NE,5.8,-,N/A,,Overcast,40,2013-05-03 02:55:00
11:15 PM,59.0,53.6,82,30.29,10.0,NNE,3.5,-,N/A,,Overcast,30,2013-05-03 03:15:00
11:35 PM,59.0,53.6,82,30.28,10.0,NNE,3.5,-,N/A,,Overcast,30,2013-05-03 03:35:00
11:55 PM,59.0,53.6,82,30.28,10.0,NNE,4.6,-,N/A,,Overcast,30,2013-05-03 03:55:00